Content
SEND FEEDBACK

Daily
Averages
Monthly
Summary
United States of America

DOWNSVILLE, NEW YORK


Home > North America > United States > New York
Elevation: 1300 feet     Latitude: 42 05N     Longitude: 074 58W

WEATHER
 
SELECT A DAY
Number of Records: 450,356;   Date Range: 1/1/95 - 10/18/14
 
SHARE

PRINT THIS DATA

[ ← Previous Day ]
WEATHER ALMANAC - FEBRUARY 13, 2013
[ Next Day → ]
[ °C ]   °F
Weather ElementAverageHighLow
Temperature32 °F39.2 °F (2:15 pm)24.8 °F (6:35 am)
Dewpoint19.2 °F26.6 °F (9:35 pm)15.8 °F (5:15 am)
Humidity60.5 %86 % (9:35 pm)45 % (2:15 pm)
Barometer29.77 in29.89 in (2:15 am)29.66 in (5:15 pm)
Wind Speed3.3 mph13.8 mph (1:35 am)
Wind Gust19.6 mph (1:35 am)
Weather ElementAverage
Visibility9.4 mi
Wind DirectionSE (140.1 °)

Weather ElementTotal
Precipitation---
Heating Degree Days33 (Base 65)
Averaged from 71 records on February 13, 2013
WEATHER CONDITIONS BREAKOUT
WIND DIRECTION BREAKOUT
WEATHER BY HOUR - FEBRUARY 13, 2013
[ °C ]   °F
Local TimeTemperatureDewpointHumidityBarometerVisibilityWind DirectionWind SpeedGust SpeedPrecipitationEventsConditions
12:35 AM30.2 °F17.6 °F60 %29.86 in10.0 miWNW (290°)10.4 mph16.1 mphOvercast
12:55 AM28.4 °F17.6 °F64 %29.86 in10.0 miWNW (300°)8.1 mphOvercast
1:15 AM30.2 °F17.6 °F60 %29.87 in10.0 miWNW (290°)9.2 mph16.1 mphOvercast
1:35 AM30.2 °F17.6 °F60 %29.87 in10.0 miWNW (290°)13.8 mph19.6 mphOvercast
1:55 AM30.2 °F17.6 °F60 %29.88 in10.0 miWNW (290°)9.2 mphOvercast
2:15 AM28.4 °F17.6 °F64 %29.89 in10.0 miWest (270°)8.1 mphOvercast
2:35 AM28.4 °F17.6 °F64 %29.88 in10.0 miWest (280°)8.1 mphOvercast
2:55 AM28.4 °F17.6 °F64 %29.88 in10.0 miWNW (290°)6.9 mphOvercast
3:15 AM28.4 °F17.6 °F64 %29.88 in10.0 miWNW (290°)5.8 mphOvercast
3:35 AM28.4 °F17.6 °F64 %29.87 in10.0 miWest (280°)5.8 mphOvercast
3:55 AM28.4 °F17.6 °F64 %29.87 in10.0 miWest (280°)3.5 mphOvercast
4:15 AM28.4 °F17.6 °F64 %29.86 in10.0 miWNW (290°)6.9 mphOvercast
4:35 AM28.4 °F17.6 °F64 %29.86 in10.0 miWNW (290°)4.6 mphOvercast
4:55 AM28.4 °F17.6 °F64 %29.85 in10.0 miWNW (300°)6.9 mphOvercast
5:15 AM28.4 °F15.8 °F59 %29.85 in10.0 miWNW (300°)5.8 mphOvercast
5:35 AM26.6 °F15.8 °F64 %29.85 in10.0 miWNW (300°)3.5 mphMostly Cloudy
5:55 AM26.6 °F15.8 °F64 %29.85 in10.0 miWNW (300°)5.8 mphMostly Cloudy
6:15 AM26.6 °F15.8 °F64 %29.84 in10.0 miCalmScattered Clouds
6:35 AM24.8 °F15.8 °F69 %29.84 in10.0 miWest (280°)3.5 mphPartly Cloudy
6:55 AM24.8 °F15.8 °F69 %29.84 in10.0 miWNW (290°)3.5 mphClear
7:15 AM24.8 °F15.8 °F69 %29.84 in10.0 miWNW (290°)4.6 mphClear
7:35 AM26.6 °F17.6 °F69 %29.84 in10.0 miCalmClear
7:55 AM26.6 °F17.6 °F69 %29.84 in10.0 miCalmClear
8:15 AM26.6 °F17.6 °F69 %29.84 in10.0 miCalmClear
8:35 AM28.4 °F17.6 °F64 %29.83 in10.0 miCalmClear
8:55 AM28.4 °F17.6 °F64 %29.83 in10.0 miWNW (300°)3.5 mphClear
9:15 AM30.2 °F17.6 °F60 %29.83 in10.0 miNW (320°)6.9 mphClear
9:35 AM30.2 °F17.6 °F60 %29.83 in10.0 miNW (320°)9.2 mphPartly Cloudy
9:55 AM30.2 °F17.6 °F60 %29.82 in10.0 miNorth (350°)8.1 mphClear
10:15 AM32.0 °F17.6 °F55 %29.81 in10.0 miNorth (350°)9.2 mphClear
10:35 AM33.8 °F17.6 °F52 %29.80 in10.0 miWNW (300°)5.8 mphClear
10:55 AM33.8 °F17.6 °F52 %29.80 in10.0 miWNW (290°)6.9 mphClear
11:15 AM33.8 °F17.6 °F52 %29.80 in10.0 miWSW (240°)5.8 mphClear
11:35 AM35.6 °F17.6 °F48 %29.80 in10.0 miCalmClear
11:55 AM33.8 °F17.6 °F52 %29.79 in10.0 miCalmClear
12:15 PM35.6 °F17.6 °F48 %29.79 in10.0 miWSW (250°)3.5 mphClear
12:35 PM35.6 °F17.6 °F48 %29.78 in10.0 miCalmClear
12:55 PM37.4 °F19.4 °F48 %29.75 in10.0 miCalmClear
1:15 PM37.4 °F19.4 °F48 %29.75 in10.0 miCalmClear
1:35 PM37.4 °F19.4 °F48 %29.74 in10.0 miWest (280°)3.5 mphClear
1:55 PM37.4 °F19.4 °F48 %29.72 in10.0 miCalmClear
2:15 PM39.2 °F19.4 °F45 %29.73 in10.0 miWSW (250°)5.8 mphClear
2:35 PM39.2 °F19.4 °F45 %29.72 in10.0 miWSW (240°)5.8 mphClear
2:55 PM39.2 °F19.4 °F45 %29.71 in10.0 miCalmClear
3:15 PM39.2 °F19.4 °F45 %29.70 in10.0 miCalmClear
3:35 PM37.4 °F17.6 °F45 %29.69 in10.0 miCalmClear
3:55 PM39.2 °F19.4 °F45 %29.69 in10.0 miCalmClear
4:15 PM39.2 °F19.4 °F45 %29.68 in10.0 miCalmClear
4:35 PM37.4 °F17.6 °F45 %29.68 in10.0 miCalmClear
4:55 PM37.4 °F17.6 °F45 %29.67 in10.0 miCalmPartly Cloudy
5:15 PM37.4 °F17.6 °F45 %29.66 in10.0 miCalmScattered Clouds
5:35 PM37.4 °F19.4 °F48 %29.67 in10.0 miCalmPartly Cloudy
5:55 PM37.4 °F17.6 °F45 %29.67 in10.0 miCalmMostly Cloudy
6:15 PM35.6 °F19.4 °F52 %29.67 in10.0 miSE (140°)6.9 mphOvercast
6:35 PM35.6 °F21.2 °F56 %29.68 in10.0 miSSE (150°)8.1 mphOvercast
6:55 PM33.8 °F21.2 °F60 %29.68 in10.0 miSouth (170°)3.5 mphOvercast
7:15 PM33.8 °F21.2 °F60 %29.68 in10.0 miCalmOvercast
7:35 PM33.8 °F21.2 °F60 %29.68 in10.0 miCalmOvercast
7:55 PM33.8 °F21.2 °F60 %29.67 in10.0 miENE (60°)3.5 mphOvercast
8:15 PM33.8 °F21.2 °F60 %29.68 in10.0 miCalmOvercast
8:35 PM33.8 °F23.0 °F65 %29.68 in2.0 miSSE (150°)4.6 mphOvercast
8:55 PM30.2 °F24.8 °F80 %29.69 in3.0 miCalmOvercast
9:15 PM30.2 °F24.8 °F80 %29.69 in8.0 miCalmOvercast
9:35 PM30.2 °F26.6 °F86 %29.69 in8.0 miCalmOvercast
9:55 PM30.2 °F26.6 °F86 %29.68 in7.0 miCalmOvercast
10:15 PM30.2 °F24.8 °F80 %29.68 in8.0 miCalmOvercast
10:35 PM30.2 °F26.6 °F86 %29.68 in8.0 miCalmOvercast
10:55 PM30.2 °F26.6 °F86 %29.68 in5.0 miCalmOvercast
11:15 PM30.2 °F24.8 °F80 %29.68 in4.0 miCalmOvercast
11:35 PM30.2 °F24.8 °F80 %29.67 in6.0 miCalmOvercast
11:55 PM28.4 °F24.8 °F86 %29.67 in7.0 miCalmMostly Cloudy
Hourly data recorded from KMSV, located miles away from Downsville, New York







STORIES FROM OUR PARTNERS